Weather History for Port Hope, MI

Change the Weather History Date:

Tuesday, October 8, 2013

  Actual Average Record
Temperature  
Mean Temperature 56 °F -  
Max Temperature 66 °F 61 °F 88 °F (2007)
Min Temperature 45 °F 46 °F 30 °F (2001)
Degree Days  
Heating Degree Days 10    
Growing Degree Days 6 (Base 50)    
Moisture  
Dew Point 44 °F    
Average Humidity 68    
Maximum Humidity 90    
Minimum Humidity 45    
Precipitation  
Precipitation 0.00 in - - ()
Sea Level Pressure  
Sea Level Pressure 30.21 in    
Wind  
Wind Speed 4 mph (SSW)    
Max Wind Speed 10 mph    
Max Gust Speed -    
Averages and records for this station are not official NWS values.
T = Trace of Precipitation, MM = Missing Value Source: NWS Daily Summary

Daily Weather History Graph

Daily Weather History Graph

Search for Another Location

Airport:

Trip Planner

Search our weather history database for the weather conditions in past years. The results will help you decide how hot, cold, wet, or windy it might be!

Date:

Astronomy

Oct. 08, 2013 Rise Set
Actual Time 7:37 AM EDT 6:59 PM EDT
Civil Twilight 7:08 AM EDT 7:27 PM EDT
Nautical Twilight 6:35 AM EDT 8:01 PM EDT
Astronomical Twilight 6:01 AM EDT 8:34 PM EDT
Moon 11:38 AM EDT (10/8) 9:26 PM EDT (10/8)
Length of Visible Light 12h 19m
Length of Day
11h 21m
Waxing Crescent, 16% of the Moon is Illuminated
Oct 8
Waxing Crescent
Oct 11
First Quarter
Oct 18
Full
Oct 26
Last Quarter
Nov 3
New

Hourly Weather History & Observations

Time (EDT) Temp. Windchill Dew Point Humidity Pressure Visibility Wind Dir Wind Speed Gust Speed Precip Events Conditions
12:51 AM 54.0 °F - 42.1 °F 64% 30.08 in - Calm Calm - N/A   Unknown
1:51 AM 50.0 °F - 43.0 °F 77% 30.10 in - Calm Calm - N/A   Unknown
2:51 AM 48.9 °F - 44.1 °F 83% 30.12 in - SW 4.6 mph - N/A   Unknown
3:51 AM 46.9 °F - 43.0 °F 86% 30.14 in - SW 5.8 mph - N/A   Unknown
4:51 AM 45.0 °F 41.8 °F 42.1 °F 90% 30.16 in - SW 5.8 mph - N/A   Unknown
5:51 AM 45.0 °F 41.8 °F 42.1 °F 90% 30.17 in - SW 5.8 mph - N/A   Unknown
6:51 AM 45.0 °F 41.8 °F 42.1 °F 90% 30.19 in - SW 5.8 mph - N/A   Unknown
7:51 AM 46.0 °F 43.1 °F 43.0 °F 89% 30.22 in - SW 5.8 mph - N/A   Unknown
8:51 AM 48.9 °F - 44.1 °F 83% 30.24 in - SW 5.8 mph - N/A   Unknown
9:51 AM 55.9 °F - 45.0 °F 67% 30.26 in - Calm Calm - N/A   Unknown
10:51 AM 57.9 °F - 45.0 °F 62% 30.27 in - Variable 3.5 mph - N/A   Unknown
11:51 AM 61.0 °F - 44.1 °F 54% 30.26 in - Calm Calm - N/A   Unknown
12:51 PM 63.0 °F - 44.1 °F 50% 30.26 in - South 5.8 mph - N/A   Unknown
1:51 PM 64.9 °F - 44.1 °F 47% 30.24 in - SW 5.8 mph - N/A   Unknown
2:51 PM 66.0 °F - 44.1 °F 45% 30.23 in - West 8.1 mph - N/A   Unknown
3:51 PM 66.0 °F - 44.1 °F 45% 30.24 in - Variable 4.6 mph - N/A   Unknown
4:51 PM 63.0 °F - 52.0 °F 67% 30.23 in - SE 10.4 mph - N/A   Unknown
5:51 PM 63.0 °F - 48.9 °F 60% 30.23 in - SE 9.2 mph - N/A   Unknown
6:51 PM 59.0 °F - 46.9 °F 64% 30.24 in - Calm Calm - N/A   Unknown
7:51 PM 55.9 °F - 46.9 °F 72% 30.24 in - SSE 3.5 mph - N/A   Unknown
8:51 PM 55.0 °F - 45.0 °F 69% 30.25 in - SSE 4.6 mph - N/A   Unknown
9:51 PM 55.9 °F - 41.0 °F 57% 30.25 in - South 4.6 mph - N/A   Unknown
10:51 PM 54.0 °F - 43.0 °F 66% 30.26 in - South 4.6 mph - N/A   Unknown
11:51 PM 54.0 °F - 43.0 °F 66% 30.26 in - Calm Calm - N/A   Unknown